User: anonymous   Login
Location: Caltech
(34.1382°N, 118.1253°W)
Time: 15:55:56
(UTC-08:00)
Language:

Cosmos 1626 - Orbit

View from above orbital plane
View from above orbital plane
View from above satellite
View from above satellite

Ground track
Ground track

The orbit data is extracted from the following two-line orbital elements,

1 15494U 85009A   17055.28366760  .00002037  00000-0  87481-4 0  9995
2 15494  82.4820   2.5970 0004109  85.9140  79.2368 15.22129418751602
Epoch (UTC): 24 February 2017 06:48:28
Eccentricity: 0.0004109
inclination: 82.4820°
perigee height: 496 km
apogee height: 502 km
right ascension of ascending node: 2.5970°
argument of perigee: 85.9140°
revolutions per day: 15.22129418
mean anomaly at epoch: 79.2368°
orbit number at epoch: 75160

The dashed part of the orbit path shows where the satellite is in the earth's shadow,  

DLR